Location: Blue Mountain Vista Observatory
(40.6992°N, 75.9422°W)
Time: 21:41:00
(UTC-05:00)

Amateur Radio Satellites - All Passes

Search period start: 26 November 2014 21:11
Search period end: 27 November 2014 21:11
Location: Blue Mountain Vista Observatory, 40.6992°N, 75.9422°W

Satellite Date Start Highest point End Downlink Frequencies (MHz)
Time Altitude Azimuth
CINEMA 3 26 Nov 21:10:49 21:15:12 74° 258° (WSW) 21:19:27 145.822/145.860
ZACube-1 26 Nov 21:12:05 21:16:10 51° 74° (ENE) 21:20:13 437.345
CUTE 1.7 + AOD 2 26 Nov 21:14:47 21:17:56 20° 266° (W) 21:21:07 437.475
VELOX 1 26 Nov 21:16:05 21:20:13 38° 71° (ENE) 21:24:21 145.980
AIST 2 26 Nov 21:17:30 21:21:23 34° 309° (NW) 21:25:20 435.215
ESTCUBE 1 26 Nov 21:19:02 21:21:53 17° 64° (ENE) 21:24:44 437.505/2401.250
GOMX 1 26 Nov 21:27:06 21:30:58 24° 264° (W) 21:34:39 467.674
AISAT 26 Nov 21:42:28 21:46:57 76° 75° (ENE) 21:51:25 437.250
UKube-1 26 Nov 21:42:47 21:46:43 33° 262° (W) 21:50:40 .
FUNcube-1 26 Nov 21:46:50 21:51:00 63° 259° (W) 21:55:09 145.935
SEEDS 26 Nov 21:50:00 21:50:14 10° 271° (W) 21:50:28 437.485
QB50P1 26 Nov 21:51:19 21:52:52 12° 91° (E) 21:54:24 145.935-145.965
CUBEBUG 1 26 Nov 21:52:49 21:56:49 34° 70° (ENE) 22:00:48 437.445
Oscar 11 26 Nov 21:54:07 21:57:33 23° 265° (W) 22:01:00 145.826/435.025
TIGRISAT 26 Nov 21:57:45 22:01:14 22° 95° (E) 22:04:46 435.000
BUGSAT 1 26 Nov 21:58:16 21:59:09 11° 90° (E) 22:00:01 437.445
DELFI C3 26 Nov 22:03:03 22:06:04 20° 266° (W) 22:09:08 145.870
50 SAT 26 Nov 22:08:13 22:12:14 71° 259° (WSW) 22:16:16 437.505
UNISAT 6 26 Nov 22:11:29 22:15:29 32° 97° (E) 22:19:33 437.425
POPSAT HIP 1 26 Nov 22:14:43 22:18:02 22° 95° (E) 22:21:20 437.405
UWE-3 26 Nov 22:15:56 22:19:26 25° 264° (W) 22:22:55 435.000/436.395/437.385
CUBEBUG 2 26 Nov 22:17:48 22:21:03 21° 265° (W) 22:24:16 437.445
DX 1 26 Nov 22:21:19 22:23:28 13° 268° (W) 22:25:37 434.975-435.025
HUMSAT D 26 Nov 22:25:24 22:29:14 36° 262° (W) 22:33:04 437.325/437.525
CUSAT 1 26 Nov 22:34:51 22:38:31 21° 75° (ENE) 22:42:58 437.405
ANTELSAT 26 Nov 22:40:02 22:44:29 66° 102° (ESE) 22:49:01 437.575/2403.000
ISS 26 Nov 22:42:48 22:45:56 43° 138° (SE) 22:49:05 145.825
POLYITAN 1 26 Nov 22:48:11 22:52:20 54° 100° (E) 22:56:29 437.675
QB50P2 26 Nov 22:49:50 22:54:01 57° 101° (E) 22:58:10 145.880/145.840
ZACube-1 26 Nov 22:50:59 22:52:50 13° 269° (W) 22:54:42 437.345
VELOX 1 26 Nov 22:53:40 22:56:55 20° 266° (W) 23:00:11 145.980
ESTCUBE 1 26 Nov 22:53:55 22:58:20 51° 260° (W) 23:02:48 437.505/2401.250
DUCHIFAT 1 26 Nov 22:55:18 22:59:30 65° 101° (ESE) 23:03:40 145.980
AUBIESAT-1 26 Nov 22:57:47 22:59:40 13° 55° (NE) 23:01:37 437.475
TISAT 1 26 Nov 23:00:37 23:04:42 46° 72° (ENE) 23:08:47 437.305
M-CUBED/EXP-1 PRIME 26 Nov 23:02:55 23:05:26 16° 57° (ENE) 23:08:03 437.505
RS-15 26 Nov 23:03:59 23:13:53 35° 36° (NE) 23:24:04 29.354- 29.394
DANDE 26 Nov 23:03:59 23:08:07 31° 78° (ENE) 23:13:27 436.750
SPROUT 26 Nov 23:13:03 23:17:16 55° 74° (ENE) 23:21:30 437.525
NANOSAT C BR1 26 Nov 23:14:52 23:19:05 74° 285° (WNW) 23:23:17 145.865
BEESAT 26 Nov 23:18:42 23:20:48 13° 61° (ENE) 23:22:54 436.000
QB50P1 26 Nov 23:24:58 23:29:07 56° 286° (WNW) 23:33:14 145.935-145.965
CUBEBUG 1 26 Nov 23:29:47 23:33:14 22° 266° (W) 23:36:42 437.445
BUGSAT 1 26 Nov 23:31:01 23:35:02 57° 286° (WNW) 23:38:59 437.445
TIGRISAT 26 Nov 23:34:03 23:38:02 33° 290° (WNW) 23:42:05 435.000
UNISAT 6 26 Nov 23:48:34 23:52:08 24° 292° (WNW) 23:55:46 437.425
POPSAT HIP 1 26 Nov 23:50:16 23:53:57 30° 290° (WNW) 23:57:38 437.405
MaSat-1 27 Nov 00:08:17 00:10:33 47° 63° (ENE) 00:12:52 437.345
ITUPSAT 1 27 Nov 00:12:05 00:16:35 41° 70° (ENE) 00:21:07 437.325
CUSAT 1 27 Nov 00:16:57 00:21:36 48° 263° (W) 00:27:46 437.405
ANTELSAT 27 Nov 00:18:48 00:20:46 13° 297° (WNW) 00:22:45 437.575/2403.000
ISS 27 Nov 00:19:50 00:22:41 26° 335° (NNW) 00:25:32 145.825
SWISSCUBE 27 Nov 00:22:25 00:27:07 58° 73° (ENE) 00:31:52 437.505
YUBILEINY 27 Nov 00:22:43 00:24:47 11° 73° (ENE) 00:26:51 435.215
POLYITAN 1 27 Nov 00:25:45 00:27:50 14° 296° (WNW) 00:29:55 437.675
QB50P2 27 Nov 00:27:31 00:29:28 13° 297° (WNW) 00:31:24 145.880/145.840
AUBIESAT-1 27 Nov 00:29:56 00:33:59 70° 254° (WSW) 00:38:26 437.475
DUCHIFAT 1 27 Nov 00:33:25 00:34:49 12° 298° (WNW) 00:36:14 145.980
M-CUBED/EXP-1 PRIME 27 Nov 00:35:59 00:39:57 54° 256° (WSW) 00:44:18 437.505
TISAT 1 27 Nov 00:38:22 00:40:47 15° 268° (W) 00:43:12 437.305
DANDE 27 Nov 00:47:24 00:51:32 29° 265° (W) 00:56:48 436.750
SPROUT 27 Nov 00:51:48 00:53:41 13° 269° (W) 00:55:35 437.525
BEESAT 27 Nov 00:53:13 00:58:00 75° 258° (WSW) 01:02:49 436.000
KKS-1 27 Nov 01:05:03 01:08:55 30° 69° (ENE) 01:12:47 437.445
Oscar 19 27 Nov 01:06:02 01:10:49 37° 98° (E) 01:15:34 437.125/150
RS-15 27 Nov 01:16:17 01:27:34 83° 241° (WSW) 01:39:21 29.354- 29.394
ITUPSAT 1 27 Nov 01:51:03 01:54:38 21° 266° (W) 01:58:15 437.325
STARS 27 Nov 01:58:06 02:02:30 76° 75° (ENE) 02:06:54 437.465
ISS 27 Nov 01:58:38 02:00:11 13° 355° (N) 02:01:44 145.825
ITAMSAT 1 27 Nov 02:01:12 02:06:11 47° 99° (E) 02:11:08 435.822/435.867
SWISSCUBE 27 Nov 02:02:42 02:05:21 15° 269° (W) 02:08:01 437.505
YUBILEINY 27 Nov 02:11:05 02:19:46 67° 92° (E) 02:28:26 435.215
HORYU 2 27 Nov 02:15:16 02:17:38 14° 92° (E) 02:19:59 437.375
Gurwin Techsat 1B 27 Nov 02:39:09 02:44:26 63° 101° (ESE) 02:49:40 435.225
KKS-1 27 Nov 02:41:53 02:45:32 25° 265° (W) 02:49:12 437.445
Oscar 19 27 Nov 02:45:41 02:49:58 27° 294° (WNW) 02:54:15 437.125/150
SO-50 27 Nov 03:03:57 03:08:17 50° 117° (ESE) 03:12:46 436.795
BEESAT 3 27 Nov 03:07:01 03:08:45 12° 39° (NE) 03:10:28 437.485
AO-7 27 Nov 03:21:20 03:28:24 29° 96° (E) 03:35:24 29.400- 29.500
BEESAT 2 27 Nov 03:22:47 03:25:16 15° 42° (NE) 03:27:45 435.950
RS-15 27 Nov 03:31:03 03:38:15 20° 261° (W) 03:45:39 29.354- 29.394
ISS 27 Nov 03:35:38 03:37:52 17° 16° (NNE) 03:40:06 145.825
PCSat 27 Nov 03:40:28 03:45:20 32° 51° (NE) 03:50:09 145.827
ITAMSAT 1 27 Nov 03:41:27 03:45:20 22° 296° (WNW) 03:49:13 435.822/435.867
JAS-2 27 Nov 03:46:57 03:49:46 13° 83° (E) 03:52:28 435.910
HORYU 2 27 Nov 03:50:14 03:54:37 54° 287° (WNW) 03:59:00 437.375
MOZHAYETS 4 27 Nov 03:53:01 03:57:27 49° 73° (ENE) 04:01:55
AIST 2 27 Nov 04:01:43 04:04:45 18° 44° (NE) 04:07:46 435.215
YUBILEINY 27 Nov 04:10:06 04:17:14 27° 293° (WNW) 04:24:24 435.215
Gurwin Techsat 1B 27 Nov 04:20:26 04:23:52 18° 298° (WNW) 04:27:16 435.225
PRISM 27 Nov 04:41:31 04:45:12 30° 69° (ENE) 04:48:55 437.425
BEESAT 3 27 Nov 04:43:25 04:47:38 88° 58° (ENE) 04:51:46 437.485
SO-50 27 Nov 04:45:35 04:49:07 22° 316° (NW) 04:52:45 436.795
STRAND 1 27 Nov 04:58:58 05:02:47 21° 64° (ENE) 05:06:35 437.568
BEESAT 2 27 Nov 04:59:50 05:04:02 69° 241° (WSW) 05:08:10 435.950
ISS 27 Nov 05:11:43 05:15:00 66° 35° (NE) 05:18:16 145.825
AO-7 27 Nov 05:13:24 05:21:36 62° 294° (WNW) 05:29:46 29.400- 29.500
PCSat 27 Nov 05:23:48 05:28:46 38° 249° (WSW) 05:33:43 145.827
JAS-2 27 Nov 05:28:57 05:36:03 86° 104° (ESE) 05:42:14 435.910
CUTE-I 27 Nov 05:30:29 05:34:38 23° 94° (E) 05:38:46 437.470
MOZHAYETS 4 27 Nov 05:32:09 05:34:57 16° 269° (W) 05:37:46
CUBESAT XI-V 27 Nov 05:37:37 05:42:07 46° 72° (ENE) 05:46:38 437.345
AIST 2 27 Nov 05:39:30 05:43:43 54° 242° (WSW) 05:47:51 435.215
O/OREOS (USA 219) 27 Nov 05:52:08 05:56:37 75° 293° (WNW) 06:01:06 437.305
GONETS M04 27 Nov 06:11:26 06:14:57 13° 74° (ENE) 06:18:28
PRISM 27 Nov 06:17:28 06:20:45 22° 265° (W) 06:24:05 437.425
Cubesat XI-IV 27 Nov 06:28:32 06:33:53 81° 104° (ESE) 06:39:12 437.490
STRAND 1 27 Nov 06:36:39 06:41:37 48° 260° (W) 06:46:36 437.568
AIST 1 27 Nov 06:40:06 06:44:30 90° 85° (E) 06:48:50
ISS 27 Nov 06:49:34 06:51:16 14° 230° (SW) 06:52:58 145.825
AO-7 27 Nov 07:08:46 07:12:43 14° 314° (NW) 07:16:39 29.400- 29.500
CUTE-I 27 Nov 07:09:51 07:14:53 44° 290° (WNW) 07:19:53 437.470
JAS-2 27 Nov 07:15:35 07:19:59 18° 305° (NW) 07:24:07 435.910
CUBESAT XI-V 27 Nov 07:16:34 07:19:46 18° 268° (W) 07:22:59 437.345
SEEDS 27 Nov 07:57:20 07:58:41 11° 90° (E) 08:00:02 437.485
GONETS M04 27 Nov 08:01:20 08:10:05 74° 94° (E) 08:18:54
Cubesat XI-IV 27 Nov 08:10:38 08:13:16 14° 301° (WNW) 08:15:53 437.490
HO-68 27 Nov 08:10:43 08:16:53 30° 95° (E) 08:22:59 435.675
AAUSAT CUBESAT 2 27 Nov 08:11:14 08:12:55 12° 90° (E) 08:14:35 437.432
CANX-2 27 Nov 08:25:10 08:28:58 30° 96° (E) 08:32:46 2200.000
BRITE-PL 27 Nov 08:25:47 08:29:17 26° 96° (E) 08:32:50 437.365/2234.400
COMPASS 1 27 Nov 08:26:08 08:29:22 21° 94° (E) 08:32:34 437.405
DOVE 4 27 Nov 08:40:36 08:43:46 21° 95° (E) 08:47:01 437.250
TIGRISAT 27 Nov 08:57:22 09:00:21 19° 66° (ENE) 09:03:20 435.000
CUTE 1.7 + AOD 2 27 Nov 08:59:18 09:03:35 69° 101° (ESE) 09:07:52 437.475
CINEMA 3 27 Nov 09:06:26 09:09:56 24° 96° (E) 09:13:30 145.822/145.860
POPSAT HIP 1 27 Nov 09:08:23 09:11:14 18° 66° (ENE) 09:14:04 437.405
UNISAT 6 27 Nov 09:11:05 09:14:40 27° 69° (ENE) 09:18:16 437.425
GOMX 1 27 Nov 09:28:03 09:32:14 84° 283° (WNW) 09:36:31 467.674
SEEDS 27 Nov 09:30:40 09:34:54 60° 285° (WNW) 09:39:06 437.485
UKube-1 27 Nov 09:30:43 09:34:49 40° 99° (E) 09:38:52 .
AISAT 27 Nov 09:35:40 09:38:10 15° 92° (E) 09:40:39 437.250
FUNcube-1 27 Nov 09:36:13 09:39:41 24° 95° (E) 09:43:10 145.935
ANTELSAT 27 Nov 09:39:20 09:43:29 55° 73° (ENE) 09:47:40 437.575/2403.000
Oscar 11 27 Nov 09:40:48 09:45:08 64° 101° (E) 09:49:27 145.826/435.025
POLYITAN 1 27 Nov 09:41:28 09:45:27 40° 72° (ENE) 09:49:26 437.675
QB50P2 27 Nov 09:42:53 09:46:54 41° 72° (ENE) 09:50:54 145.880/145.840
DELFI C3 27 Nov 09:43:02 09:47:08 57° 100° (E) 09:51:12 145.870
AAUSAT CUBESAT 2 27 Nov 09:44:46 09:48:55 55° 286° (WNW) 09:53:04 437.432
DUCHIFAT 1 27 Nov 09:47:56 09:52:00 46° 73° (ENE) 09:56:04 145.980
50 SAT 27 Nov 09:50:38 09:53:15 16° 93° (E) 09:55:51 437.505
HO-68 27 Nov 09:57:55 10:04:48 52° 293° (WNW) 10:11:39 435.675
GONETS M04 27 Nov 10:00:57 10:07:46 24° 294° (WNW) 10:14:39
COMPASS 1 27 Nov 10:01:21 10:05:09 32° 289° (WNW) 10:08:56 437.405
CANX-2 27 Nov 10:01:22 10:04:45 23° 292° (WNW) 10:08:09 2200.000
BRITE-PL 27 Nov 10:04:26 10:07:45 24° 291° (WNW) 10:11:07 437.365/2234.400
UWE-3 27 Nov 10:05:16 10:09:29 61° 101° (E) 10:13:47 435.000/436.395/437.385
NANOSAT C BR1 27 Nov 10:07:23 10:11:38 79° 76° (ENE) 10:15:54 145.865
DX 1 27 Nov 10:07:32 10:11:53 76° 285° (WNW) 10:16:12 434.975-435.025
CUBEBUG 2 27 Nov 10:07:55 10:12:11 76° 102° (ESE) 10:16:33 437.445
HUMSAT D 27 Nov 10:10:13 10:14:03 34° 97° (E) 10:17:53 437.325/437.525
QB50P1 27 Nov 10:17:29 10:21:45 79° 258° (WSW) 10:26:01 145.935-145.965
DOVE 4 27 Nov 10:17:54 10:21:36 31° 289° (WNW) 10:25:24 437.250
BUGSAT 1 27 Nov 10:20:40 10:24:56 87° 257° (WSW) 10:29:11 437.445
TIGRISAT 27 Nov 10:32:55 10:36:51 36° 262° (W) 10:40:48 435.000
ZACube-1 27 Nov 10:37:14 10:41:28 69° 285° (WNW) 10:45:46 437.345
CUTE 1.7 + AOD 2 27 Nov 10:37:35 10:38:56 11° 297° (WNW) 10:40:17 437.475
POPSAT HIP 1 27 Nov 10:42:49 10:46:50 40° 261° (W) 10:50:51 437.405
VELOX 1 27 Nov 10:43:29 10:47:56 82° 103° (ESE) 10:52:20 145.980
CINEMA 3 27 Nov 10:43:31 10:47:07 28° 290° (WNW) 10:50:48 145.822/145.860
ESTCUBE 1 27 Nov 10:47:22 10:51:30 34° 97° (E) 10:55:35 437.505/2401.250
UNISAT 6 27 Nov 10:47:54 10:51:25 25° 265° (W) 10:54:58 437.425
UKube-1 27 Nov 11:07:40 11:10:41 19° 295° (WNW) 11:13:41 .
AISAT 27 Nov 11:10:48 11:15:05 49° 288° (WNW) 11:19:19 437.250
FUNcube-1 27 Nov 11:12:22 11:16:01 29° 290° (WNW) 11:19:43 145.935
CUBEBUG 1 27 Nov 11:18:10 11:22:32 71° 102° (ESE) 11:26:51 437.445
POLYITAN 1 27 Nov 11:18:48 11:21:34 17° 267° (W) 11:24:20 437.675
Oscar 11 27 Nov 11:18:57 11:20:45 12° 297° (WNW) 11:22:34 145.826/435.025
ANTELSAT 27 Nov 11:18:58 11:20:39 12° 269° (W) 11:22:21 437.575/2403.000
DELFI C3 27 Nov 11:20:11 11:21:56 13° 296° (WNW) 11:23:41 145.870
QB50P2 27 Nov 11:20:20 11:23:00 16° 267° (W) 11:25:41 145.880/145.840
50 SAT 27 Nov 11:24:56 11:28:42 37° 288° (WNW) 11:32:29 437.505
DUCHIFAT 1 27 Nov 11:25:46 11:28:07 15° 268° (W) 11:30:28 145.980
SO-50 27 Nov 11:35:35 11:40:16 44° 52° (NE) 11:44:57 436.795
UWE-3 27 Nov 11:43:46 11:45:34 13° 296° (WNW) 11:47:22 435.000/436.395/437.385
HUMSAT D 27 Nov 11:46:36 11:49:39 20° 293° (WNW) 11:52:42 437.325/437.525
CUBEBUG 2 27 Nov 11:48:01 11:48:19 10° 298° (WNW) 11:48:37 437.445
AUBIESAT-1 27 Nov 12:15:21 12:17:01 12° 93° (E) 12:18:39 437.475
ITUPSAT 1 27 Nov 12:16:01 12:17:01 11° 89° (E) 12:18:01 437.325
M-CUBED/EXP-1 PRIME 27 Nov 12:20:40 12:23:28 15° 95° (E) 12:26:13 437.505
DANDE 27 Nov 12:21:36 12:23:51 23° 95° (E) 12:26:00 436.750
TISAT 1 27 Nov 12:21:42 12:25:56 89° 284° (WNW) 12:30:08 437.305
YUBILEINY 27 Nov 12:22:08 12:29:43 32° 70° (ENE) 12:37:13 435.215
Oscar 19 27 Nov 12:22:35 12:27:31 52° 72° (ENE) 12:32:29 437.125/150
VELOX 1 27 Nov 12:23:26 12:23:50 10° 300° (WNW) 12:24:14 145.980
Gurwin Techsat 1B 27 Nov 12:23:47 12:26:04 13° 59° (ENE) 12:28:21 435.225
ESTCUBE 1 27 Nov 12:24:37 12:28:11 23° 293° (WNW) 12:31:44 437.505/2401.250
SWISSCUBE 27 Nov 12:24:45 12:27:34 15° 91° (E) 12:30:21 437.505
SPROUT 27 Nov 12:36:13 12:40:30 70° 285° (WNW) 12:44:44 437.525
BEESAT 27 Nov 12:54:26 12:58:35 29° 96° (E) 13:02:42 436.000
CUBEBUG 1 27 Nov 12:56:59 12:58:18 11° 298° (WNW) 12:59:38 437.445
HORYU 2 27 Nov 13:14:27 13:16:39 14° 62° (ENE) 13:18:50 437.375
SO-50 27 Nov 13:16:43 13:20:34 24° 249° (WSW) 13:24:25 436.795
ITAMSAT 1 27 Nov 13:18:48 13:23:58 70° 73° (ENE) 13:29:10 435.822/435.867
PHONESAT 2.4 27 Nov 13:32:07 13:35:00 22° 151° (SSE) 13:37:55 2401.200-2431.200
CUSAT 1 27 Nov 13:32:45 13:34:22 15° 287° (WNW) 13:35:58 437.405
RS-15 27 Nov 13:35:15 13:39:33 13° 96° (E) 13:43:50 29.354- 29.394
VERMONT LUNAR 27 Nov 13:36:29 13:39:41 30° 155° (SSE) 13:42:53 437.305
AUBIESAT-1 27 Nov 13:47:35 13:52:32 80° 289° (WNW) 13:57:18 437.475
STARS 27 Nov 13:50:09 13:52:33 14° 92° (E) 13:54:57 437.465
ITUPSAT 1 27 Nov 13:50:38 13:55:28 78° 285° (WNW) 14:00:14 437.325
M-CUBED/EXP-1 PRIME 27 Nov 13:53:59 13:58:53 64° 291° (WNW) 14:03:39 437.505
Gurwin Techsat 1B 27 Nov 13:59:56 14:05:15 87° 256° (WSW) 14:10:37 435.225
SWISSCUBE 27 Nov 14:01:04 14:05:46 55° 288° (WNW) 14:10:25 437.505
Oscar 19 27 Nov 14:03:42 14:07:09 18° 268° (W) 14:10:38 437.125/150
YUBILEINY 27 Nov 14:18:29 14:26:53 56° 270° (W) 14:35:15 435.215
AO-7 27 Nov 14:19:59 14:27:30 41° 61° (ENE) 14:35:03 29.400- 29.500
O/OREOS (USA 219) 27 Nov 14:23:54 14:27:15 20° 57° (ENE) 14:30:35 437.305
BEESAT 27 Nov 14:32:13 14:36:22 30° 292° (WNW) 14:40:30 436.000
KKS-1 27 Nov 14:32:32 14:36:58 64° 102° (ESE) 14:41:21 437.445
HORYU 2 27 Nov 14:48:27 14:52:49 60° 259° (W) 14:57:13 437.375
ITAMSAT 1 27 Nov 15:01:18 15:03:56 14° 270° (W) 15:06:35 435.822/435.867
PHONESAT 2.4 27 Nov 15:09:46 15:13:27 66° 166° (SSE) 15:17:09 2401.200-2431.200
MaSat-1 27 Nov 15:10:16 15:12:53 30° 299° (WNW) 15:15:19 437.345
VERMONT LUNAR 27 Nov 15:14:18 15:17:55 78° 171° (S) 15:21:33 437.305
STARS 27 Nov 15:25:04 15:29:19 50° 287° (WNW) 15:33:33 437.465
AUBIESAT-1 27 Nov 15:25:17 15:26:40 11° 306° (NW) 15:28:02 437.475
JAS-2 27 Nov 15:38:35 15:45:40 42° 66° (ENE) 15:52:54 435.910
RS-15 27 Nov 15:38:50 15:49:40 69° 116° (ESE) 16:00:29 29.354- 29.394
MOZHAYETS 4 27 Nov 15:50:39 15:52:34 12° 90° (E) 15:54:29
O/OREOS (USA 219) 27 Nov 16:02:37 16:06:48 40° 254° (WSW) 16:10:59 437.305
KKS-1 27 Nov 16:11:05 16:13:04 13° 298° (WNW) 16:15:02 437.445
AO-7 27 Nov 16:12:15 16:20:07 47° 259° (W) 16:28:05 29.400- 29.500
Cubesat XI-IV 27 Nov 16:12:47 16:16:12 18° 61° (ENE) 16:19:38 437.490
PHONESAT 2.4 27 Nov 16:48:30 16:52:14 88° 181° (S) 16:55:57 2401.200-2431.200
CUTE-I 27 Nov 16:51:54 16:56:47 37° 68° (ENE) 17:01:40 437.470
VERMONT LUNAR 27 Nov 16:52:46 16:56:24 81° 188° (S) 17:00:02 437.305
JAS-2 27 Nov 17:23:21 17:30:32 44° 264° (W) 17:37:59 435.910
MOZHAYETS 4 27 Nov 17:25:35 17:30:13 65° 286° (WNW) 17:34:49
CUBESAT XI-V 27 Nov 17:37:11 17:38:46 12° 89° (E) 17:40:20 437.345
Cubesat XI-IV 27 Nov 17:50:26 17:55:45 65° 258° (WSW) 18:01:06 437.490
RS-15 27 Nov 17:52:49 18:02:47 39° 320° (NW) 18:12:54 29.354- 29.394
PRISM 27 Nov 18:00:03 18:04:13 52° 100° (E) 18:08:19 437.425
GONETS M04 27 Nov 18:12:26 18:20:24 36° 71° (ENE) 18:28:16
PCSat 27 Nov 18:22:21 18:26:55 29° 109° (ESE) 18:31:32 145.827
PHONESAT 2.4 27 Nov 18:27:21 18:30:55 45° 200° (SSW) 18:34:28 2401.200-2431.200
VERMONT LUNAR 27 Nov 18:31:23 18:34:40 32° 204° (SSW) 18:37:57 437.305
CUTE-I 27 Nov 18:32:21 18:36:53 28° 265° (W) 18:41:26 437.470
BEESAT 3 27 Nov 18:39:26 18:42:14 18° 110° (ESE) 18:45:04 437.485
HO-68 27 Nov 18:39:59 18:45:23 24° 58° (ENE) 18:50:48 435.675
STRAND 1 27 Nov 18:47:21 18:52:24 59° 101° (E) 18:57:25 437.568
BEESAT 2 27 Nov 18:55:45 18:59:05 24° 112° (ESE) 19:02:29 435.950
GOMX 1 27 Nov 19:02:14 19:03:01 10° 63° (ENE) 19:03:48 467.674
AIST 1 27 Nov 19:09:13 19:13:30 54° 94° (E) 19:17:50
CUBESAT XI-V 27 Nov 19:12:02 19:16:41 68° 285° (WNW) 19:21:16 437.345
CANX-2 27 Nov 19:18:44 19:21:59 22° 68° (ENE) 19:25:14 2200.000
COMPASS 1 27 Nov 19:18:51 19:21:12 15° 65° (ENE) 19:23:34 437.405
BRITE-PL 27 Nov 19:36:11 19:40:37 34° 71° (ENE) 19:44:45 437.365/2234.400
PRISM 27 Nov 19:37:04 19:39:18 14° 297° (WNW) 19:41:32 437.425
AIST 2 27 Nov 19:37:50 19:41:38 34° 115° (ESE) 19:45:30 435.215
DOVE 4 27 Nov 19:46:34 19:50:04 23° 68° (ENE) 19:53:27 437.250
CUTE 1.7 + AOD 2 27 Nov 19:52:12 19:56:14 46° 73° (ENE) 20:00:18 437.475
PCSat 27 Nov 20:05:05 20:10:09 40° 306° (NW) 20:15:16 145.827
PHONESAT 2.4 27 Nov 20:07:36 20:09:08 12° 215° (SW) 20:10:40 2401.200-2431.200
CINEMA 3 27 Nov 20:08:48 20:12:11 23° 68° (ENE) 20:15:29 145.822/145.860
GONETS M04 27 Nov 20:09:03 20:17:25 50° 271° (W) 20:25:43
RS-15 27 Nov 20:12:06 20:19:33 20° 354° (N) 20:27:07 29.354- 29.394
BEESAT 3 27 Nov 20:16:14 20:20:08 42° 307° (NW) 20:24:07 437.485
SEEDS 27 Nov 20:22:39 20:26:50 89° 258° (WSW) 20:31:04 437.485
HO-68 27 Nov 20:25:16 20:32:25 71° 256° (WSW) 20:39:38 435.675
UKube-1 27 Nov 20:25:47 20:29:42 34° 70° (ENE) 20:33:38 .
STRAND 1 27 Nov 20:27:48 20:31:06 18° 298° (WNW) 20:34:23 437.568
DELFI C3 27 Nov 20:31:49 20:35:31 34° 71° (ENE) 20:39:15 145.870
FUNcube-1 27 Nov 20:33:00 20:35:55 19° 67° (ENE) 20:38:50 145.935
BEESAT 2 27 Nov 20:33:30 20:37:14 32° 310° (NW) 20:41:01 435.950
AISAT 27 Nov 20:34:22 20:36:50 15° 63° (ENE) 20:39:17 437.250
Oscar 11 27 Nov 20:35:24 20:39:31 47° 73° (ENE) 20:43:40 145.826/435.025
AAUSAT CUBESAT 2 27 Nov 20:35:40 20:39:50 85° 257° (WSW) 20:44:02 437.432
GOMX 1 27 Nov 20:35:51 20:40:37 81° 258° (WSW) 20:45:04 467.674
50 SAT 27 Nov 20:41:19 20:42:28 11° 63° (ENE) 20:43:37 437.505
AIST 1 27 Nov 20:49:25 20:51:32 13° 291° (WNW) 20:53:40
COMPASS 1 27 Nov 20:52:31 20:56:32 47° 261° (W) 21:00:36 437.405
CANX-2 27 Nov 20:54:01 20:57:45 31° 264° (W) 21:01:31 2200.000
UWE-3 27 Nov 21:02:40 21:06:43 47° 73° (ENE) 21:10:43 435.000/436.395/437.385
HUMSAT D 27 Nov 21:02:58 21:06:17 24° 69° (ENE) 21:09:37 437.325/437.525
